Location: Arlington
(40.6323°N, 74.1651°W)
Time: 14:00:05
(UTC+00:00)

Geosat - Pass Details

Date: 22 November 2019
Orbit: 763 x 766 km, 108.0° (Epoch: 13 December)

Event Time Altitude Azimuth Distance (km) Brightness Sun altitude
Exits shadow 22:33:20 - 37° (NE) 2,405 6.1 -11.3°
Reaches altitude 10° 22:33:35 10° 38° (NE) 2,311 6.0 -11.3°
Maximum altitude 22:38:25 46° 112° (ESE) 1,025 4.3 -12.2°
Drops below altitude 10° 22:43:13 10° 185° (S) 2,295 6.7 -13.1°
Sets 22:45:34 0° 191° (S) 3,217 7.6 -13.5°
